SPORT (55129 NORAD) Tracking and Keplerian Element Data

This shows tracking and keplerian element data for the satellite.

Feedback or suggestion? Click here.




ElementValue
Catalog55129
NameSPORT
Epoch Orbit1343
Epoch Day84.40885487
Epoch Year2023
RAAN21.0814
Inclination51.6401
Eccentricity0.0005755
Argument of Perigee139.1689
Mean Anonmoly220.9735
Mean Motion15.58366069
Decay Rate0.00069792
L11 55129U 98067UW 23084.40885487 .00069792 00000+0 89906-3 0 9990
L22 55129 51.6401 21.0814 0005755 139.1689 220.9735 15.58366069 13434



Live tracking and technical data element details for SPORT (NORAD 55129). SPORT can be tracked NOW for your location showing map with azimuth and elevation plus other details from your city location.







IsCatalogInMostPopularTable: catalog: 55129, numindb: 10
Update: records affected: 1



GetName: 55129 SPORT

Hit Count: updated at: Mon, 27 Mar 2023 08:19:22 GMT